Location: Girdwood
(60.9430°N, 149.1660°W)
Time: 23:04:57
(UTC-08:00)

Amateur Radio Satellites - All Passes

Search period start: 18 April 2014 22:34
Search period end: 19 April 2014 22:34
Location: Girdwood, 60.9430°N, 149.1660°W

Satellite Date Start Highest point End Downlink Frequencies (MHz)
Time Altitude Azimuth
FUNcube-1 18 Apr 22:35:38 22:39:39 47° 64° (ENE) 22:43:40 145.950 - 145.970 MHz USB
Oscar 11 18 Apr 22:47:14 22:51:33 66° 256° (WSW) 22:55:53 145.825 FM, Beacon 2401.500 USB
STRAND 1 18 Apr 22:50:46 22:55:11 30° 309° (NW) 22:59:34 ?
HO-68 18 Apr 22:56:18 23:03:00 42° 264° (W) 23:09:46 435.675 MHz FM
MaSat-1 18 Apr 23:04:56 23:06:15 13° 117° (ESE) 23:07:32 437.345 MHz
UOSAT-12 18 Apr 23:09:24 23:14:02 56° 354° (N) 23:18:43 437.025 FM, 437.400 FM
OPAL 18 Apr 23:29:47 23:31:31 12° 16° (NNE) 23:33:16 ?
SO-50 19 Apr 00:04:21 00:08:56 71° 215° (SW) 00:13:35 436.795 FM
FUNcube-1 19 Apr 00:12:28 00:16:17 33° 265° (W) 00:20:06 145.950 - 145.970 MHz USB
Oscar 11 19 Apr 00:26:21 00:28:38 14° 277° (W) 00:30:55 145.825 FM, Beacon 2401.500 USB
STRAND 1 19 Apr 00:31:01 00:33:02 12° 332° (NNW) 00:35:03 ?
MaSat-1 19 Apr 00:41:46 00:44:20 73° 317° (NW) 00:46:49 437.345 MHz
UOSAT-12 19 Apr 00:50:00 00:54:42 66° 17° (NNE) 00:59:26 437.025 FM, 437.400 FM
HO-68 19 Apr 00:50:16 00:52:55 12° 288° (WNW) 00:55:34 435.675 MHz FM
OPAL 19 Apr 01:04:57 01:08:52 23° 39° (NE) 01:12:50 ?
PCSat 19 Apr 01:06:06 01:08:15 12° 104° (ESE) 01:10:23 145.825 MHz
SO-50 19 Apr 01:45:21 01:48:57 23° 237° (WSW) 01:52:35 436.795 FM
Sapphire 19 Apr 02:01:29 02:05:50 25° 115° (ESE) 02:10:13 437.095 MHz 1200 baud AX-25 AFSK
Oscar 19 19 Apr 02:13:19 02:16:30 16° 82° (E) 02:19:40 437.125 CW, 437.150 USB
Oscar 16 19 Apr 02:21:16 02:24:55 19° 84° (E) 02:28:33 437.025 USB, Beacon 2401.1428
MaSat-1 19 Apr 02:21:23 02:23:11 17° 340° (NNW) 02:24:59 437.345 MHz
UOSAT-12 19 Apr 02:30:17 02:34:56 58° 220° (SW) 02:39:35 437.025 FM, 437.400 FM
OPAL 19 Apr 02:42:02 02:47:04 67° 62° (ENE) 02:52:12 ?
PCSat 19 Apr 02:45:18 02:50:25 44° 126° (SE) 02:55:34 145.825 MHz
Uribyol 2 19 Apr 02:55:39 02:59:23 20° 85° (E) 03:03:06 436.500 FM
Gurwin Techsat 1B 19 Apr 03:26:09 03:28:56 14° 79° (E) 03:31:43 435.225 FM
AO-27 19 Apr 03:35:15 03:39:57 33° 94° (E) 03:44:36 436.795 MHz FM
Sapphire 19 Apr 03:43:13 03:48:39 78° 138° (SE) 03:54:06 437.095 MHz 1200 baud AX-25 AFSK
ITAMSAT 1 19 Apr 03:46:02 03:50:52 38° 96° (E) 03:55:41 435.822 SSB
STRAND 1 19 Apr 03:46:50 03:47:18 10° 21° (NNE) 03:47:47 ?
Oscar 19 19 Apr 03:51:43 03:56:55 63° 104° (ESE) 04:02:06 437.125 CW, 437.150 USB
KITSAT 1 19 Apr 03:51:55 03:58:32 29° 111° (ESE) 04:05:09 435.175 FM
AO-Echo 19 Apr 03:57:14 04:01:48 38° 96° (E) 04:06:14 ?
Oscar 16 19 Apr 03:59:57 04:05:11 74° 106° (ESE) 04:10:24 437.025 USB, Beacon 2401.1428
MaSat-1 19 Apr 04:01:11 04:02:31 13° 6° (N) 04:03:53 437.345 MHz
UOSAT-12 19 Apr 04:11:10 04:14:20 18° 242° (WSW) 04:17:30 437.025 FM, 437.400 FM
TMSAT-1 19 Apr 04:13:53 04:18:00 22° 87° (E) 04:22:06 436.925 FM
JAS-1B 19 Apr 04:15:33 04:18:36 14° 77° (ENE) 04:21:35 435.800 - 435.900 CW/SSB
Uosat F 19 Apr 04:17:33 04:18:27 10° 77° (ENE) 04:19:20 435.120 FM
OPAL 19 Apr 04:21:51 04:26:22 32° 263° (W) 04:31:00 ?
PCSat 19 Apr 04:28:17 04:33:43 72° 329° (NNW) 04:39:11 145.825 MHz
Uribyol 2 19 Apr 04:34:32 04:39:45 78° 107° (ESE) 04:44:57 436.500 FM
Gurwin Techsat 1B 19 Apr 05:04:53 05:10:09 56° 101° (ESE) 05:15:22 435.225 FM
AO-27 19 Apr 05:14:43 05:19:52 65° 296° (WNW) 05:24:59 436.795 MHz FM
STRAND 1 19 Apr 05:21:01 05:24:56 23° 44° (NE) 05:28:51 ?
ITAMSAT 1 19 Apr 05:25:34 05:30:39 57° 298° (WNW) 05:35:42 435.822 SSB
Sapphire 19 Apr 05:27:07 05:32:26 52° 342° (NNW) 05:37:46 437.095 MHz 1200 baud AX-25 AFSK
Oscar 19 19 Apr 05:31:22 05:36:07 36° 305° (NW) 05:40:51 437.125 CW, 437.150 USB
AO-Echo 19 Apr 05:36:03 05:40:49 51° 298° (WNW) 05:45:25 ?
AO-7 19 Apr 05:36:26 05:43:42 32° 90° (E) 05:50:56 29.400 - 29.500 MHz
MaSat-1 19 Apr 05:39:28 05:41:43 26° 30° (NNE) 05:44:07 437.345 MHz
Oscar 16 19 Apr 05:39:41 05:44:16 32° 308° (NW) 05:48:50 437.025 USB, Beacon 2401.1428
KITSAT 1 19 Apr 05:44:45 05:52:50 71° 135° (SE) 06:00:55 435.175 FM
TMSAT-1 19 Apr 05:53:22 05:58:43 86° 108° (ESE) 06:04:02 436.925 FM
Uosat F 19 Apr 05:53:48 05:58:37 44° 99° (E) 06:03:24 435.120 FM
JAS-1B 19 Apr 06:05:05 06:10:53 59° 103° (ESE) 06:16:30 435.800 - 435.900 CW/SSB
PCSat 19 Apr 06:12:36 06:17:50 45° 354° (N) 06:23:04 145.825 MHz
Uribyol 2 19 Apr 06:14:24 06:18:55 31° 309° (NW) 06:23:24 436.500 FM
RS-15 19 Apr 06:35:18 06:41:40 18° 94° (E) 06:47:56 29.354 - 29.394 USB, Beacon 29.352 USB
Gurwin Techsat 1B 19 Apr 06:45:06 06:50:05 41° 303° (WNW) 06:55:02 435.225 FM
AO-27 19 Apr 06:54:49 06:58:39 21° 318° (NW) 07:02:28 436.795 MHz FM
STRAND 1 19 Apr 06:58:23 07:03:29 72° 66° (ENE) 07:08:36 ?
ITAMSAT 1 19 Apr 07:05:42 07:09:18 19° 320° (NW) 07:12:54 435.822 SSB
Sapphire 19 Apr 07:11:30 07:16:44 45° 7° (N) 07:21:58 437.095 MHz 1200 baud AX-25 AFSK
Oscar 19 19 Apr 07:11:35 07:14:15 14° 328° (NNW) 07:16:55 437.125 CW, 437.150 USB
Hamsat 19 Apr 07:14:20 07:17:33 20° 87° (E) 07:20:47 145.90 MHz
AO-Echo 19 Apr 07:15:36 07:18:41 17° 321° (NW) 07:21:43 ?
MaSat-1 19 Apr 07:17:42 07:20:16 51° 230° (SW) 07:23:10 437.345 MHz
Oscar 16 19 Apr 07:20:00 07:22:18 13° 331° (NNW) 07:24:37 437.025 USB, Beacon 2401.1428
AO-7 19 Apr 07:29:17 07:37:40 86° 115° (ESE) 07:46:02 29.400 - 29.500 MHz
Uosat F 19 Apr 07:32:43 07:37:32 47° 300° (WNW) 07:42:19 435.120 FM
TMSAT-1 19 Apr 07:33:43 07:38:14 29° 311° (NW) 07:42:43 436.925 FM
KITSAT 1 19 Apr 07:40:23 07:48:31 69° 342° (NNW) 07:56:39 435.175 FM
Uribyol 2 19 Apr 07:54:52 07:57:03 13° 332° (NNW) 07:59:14 436.500 FM
JAS-1B 19 Apr 07:56:04 08:01:33 40° 308° (NW) 08:06:47 435.800 - 435.900 CW/SSB
PCSat 19 Apr 07:56:46 08:02:07 53° 19° (NNE) 08:07:27 145.825 MHz
JAS-2 19 Apr 07:57:15 08:01:10 21° 86° (E) 08:05:13 435.800 - 435.900 CW/SSB, 435.910 FM
AO-40 19 Apr 08:12:18 11:19:02 16° 180° (S) 14:40:54 Beacon 2401.320
Gurwin Techsat 1B 19 Apr 08:25:49 08:28:55 16° 326° (NW) 08:32:01 435.225 FM
STRAND 1 19 Apr 08:38:45 08:43:10 29° 268° (W) 08:47:38 ?
RS-15 19 Apr 08:40:40 08:51:07 49° 122° (ESE) 09:01:22 29.354 - 29.394 USB, Beacon 29.352 USB
SO-67 19 Apr 08:47:33 08:50:37 27° 94° (E) 08:53:40 435.3500 MHz FM
Hamsat 19 Apr 08:49:47 08:54:09 86° 288° (WNW) 08:58:31 145.90 MHz
Sapphire 19 Apr 08:55:23 09:00:50 73° 32° (NNE) 09:06:16 437.095 MHz 1200 baud AX-25 AFSK
Uosat F 19 Apr 09:12:16 09:15:22 17° 323° (NW) 09:18:29 435.120 FM
TMSAT-1 19 Apr 09:14:40 09:16:43 12° 334° (NNW) 09:18:47 436.925 FM
AO-7 19 Apr 09:22:20 09:30:00 44° 319° (NW) 09:37:40 29.400 - 29.500 MHz
KITSAT 1 19 Apr 09:36:48 09:44:54 63° 10° (N) 09:52:58 435.175 FM
PCSat 19 Apr 09:40:26 09:45:53 76° 223° (SW) 09:51:18 145.825 MHz
JAS-2 19 Apr 09:41:54 09:47:09 83° 108° (ESE) 09:52:44 435.800 - 435.900 CW/SSB, 435.910 FM
JAS-1B 19 Apr 09:47:11 09:50:49 17° 334° (NNW) 09:54:18 435.800 - 435.900 CW/SSB
HO-68 19 Apr 10:11:52 10:17:56 28° 88° (E) 10:23:58 435.675 MHz FM
SO-67 19 Apr 10:20:35 10:23:57 44° 294° (WNW) 10:27:19 435.3500 MHz FM
Oscar 11 19 Apr 10:25:53 10:28:04 14° 82° (E) 10:30:16 145.825 FM, Beacon 2401.500 USB
Hamsat 19 Apr 10:26:22 10:29:40 22° 309° (NW) 10:32:58 145.90 MHz
Sapphire 19 Apr 10:39:00 10:44:07 43° 235° (SW) 10:49:12 437.095 MHz 1200 baud AX-25 AFSK
Oscar 10/S400 19 Apr 10:41:50 11:56:19 41° 201° (SSW) 17:54:18 145.825 - 145.975 CW/USB, Beacon 145.810 USB
RS-15 19 Apr 10:51:38 11:02:47 89° 330° (NNW) 11:13:48 29.354 - 29.394 USB, Beacon 29.352 USB
Uribyol 2 19 Apr 11:11:00 11:11:53 10° 21° (NNE) 11:12:47 436.500 FM
AO-7 19 Apr 11:14:38 11:21:05 26° 346° (NNW) 11:27:33 29.400 - 29.500 MHz
PCSat 19 Apr 11:24:20 11:28:39 25° 245° (WSW) 11:32:57 145.825 MHz
JAS-2 19 Apr 11:27:32 11:31:57 29° 310° (NW) 11:36:32 435.800 - 435.900 CW/SSB, 435.910 FM
KITSAT 1 19 Apr 11:32:43 11:40:54 87° 217° (SW) 11:49:01 435.175 FM
JAS-1B 19 Apr 11:36:57 11:39:14 12° 2° (N) 11:41:26 435.800 - 435.900 CW/SSB
AO-27 19 Apr 11:48:55 11:51:27 14° 30° (NNE) 11:53:59 436.795 MHz FM
FUNcube-1 19 Apr 11:51:02 11:54:33 25° 91° (E) 11:58:06 145.950 - 145.970 MHz USB
Saudisat 1A 19 Apr 11:53:02 11:54:22 11° 113° (ESE) 11:55:43 436.775 MHz
SO-67 19 Apr 11:55:39 11:56:20 10° 315° (NW) 11:57:01 435.3500 MHz FM
ITAMSAT 1 19 Apr 11:59:12 12:02:01 15° 33° (NNE) 12:04:49 435.822 SSB
HO-68 19 Apr 11:59:27 12:06:42 84° 112° (ESE) 12:13:55 435.675 MHz FM
Oscar 11 19 Apr 12:00:49 12:05:11 64° 103° (ESE) 12:09:31 145.825 FM, Beacon 2401.500 USB
Oscar 19 19 Apr 12:02:49 12:06:26 20° 41° (NE) 12:10:04 437.125 CW, 437.150 USB
AO-Echo 19 Apr 12:06:48 12:09:08 13° 33° (NNE) 12:11:27 ?
Oscar 16 19 Apr 12:10:43 12:14:35 22° 43° (NE) 12:18:28 437.025 USB, Beacon 2401.1428
Sapphire 19 Apr 12:24:21 12:26:16 12° 257° (WSW) 12:28:11 437.095 MHz 1200 baud AX-25 AFSK
TMSAT-1 19 Apr 12:30:49 12:32:21 11° 23° (NNE) 12:33:52 436.925 FM
Uribyol 2 19 Apr 12:45:48 12:49:48 23° 44° (NE) 12:53:48 436.500 FM
RS-15 19 Apr 13:04:53 13:15:55 73° 2° (N) 13:26:56 29.354 - 29.394 USB, Beacon 29.352 USB
AO-7 19 Apr 13:05:16 13:11:40 26° 13° (NNE) 13:18:04 29.400 - 29.500 MHz
JAS-2 19 Apr 13:13:51 13:15:37 12° 335° (NNW) 13:17:25 435.800 - 435.900 CW/SSB, 435.910 FM
Gurwin Techsat 1B 19 Apr 13:19:17 13:22:55 19° 39° (NE) 13:26:33 435.225 FM
JAS-1B 19 Apr 13:23:23 13:27:43 19° 30° (NNE) 13:31:43 435.800 - 435.900 CW/SSB
AO-27 19 Apr 13:25:04 13:29:43 35° 53° (NE) 13:34:23 436.795 MHz FM
FUNcube-1 19 Apr 13:27:12 13:31:23 66° 292° (WNW) 13:35:38 145.950 - 145.970 MHz USB
KITSAT 1 19 Apr 13:28:20 13:35:40 39° 242° (WSW) 13:42:57 435.175 FM
Saudisat 1A 19 Apr 13:28:45 13:32:58 41° 134° (SE) 13:37:10 436.775 MHz
ITAMSAT 1 19 Apr 13:35:35 13:40:22 39° 55° (NE) 13:45:08 435.822 SSB
Oscar 11 19 Apr 13:37:23 13:41:10 29° 304° (NW) 13:44:57 145.825 FM, Beacon 2401.500 USB
Oscar 19 19 Apr 13:39:53 13:44:57 58° 63° (ENE) 13:50:03 437.125 CW, 437.150 USB
AO-Echo 19 Apr 13:42:06 13:46:45 35° 55° (NE) 13:51:17 ?
HO-68 19 Apr 13:47:27 13:53:58 39° 315° (NW) 14:00:30 435.675 MHz FM
Oscar 16 19 Apr 13:48:07 13:53:14 67° 65° (ENE) 13:58:24 437.025 USB, Beacon 2401.1428
Uosat F 19 Apr 14:03:10 14:06:01 15° 35° (NE) 14:08:52 435.120 FM
TMSAT-1 19 Apr 14:06:28 14:10:43 25° 46° (NE) 14:15:00 436.925 FM
Uribyol 2 19 Apr 14:23:29 14:28:38 73° 67° (ENE) 14:33:49 436.500 FM
AO-7 19 Apr 14:55:08 15:02:42 42° 39° (NE) 15:10:17 29.400 - 29.500 MHz
Gurwin Techsat 1B 19 Apr 14:56:49 15:01:58 54° 62° (ENE) 15:07:10 435.225 FM
AO-27 19 Apr 15:03:51 15:09:02 68° 255° (WSW) 15:14:14 436.795 MHz FM
FUNcube-1 19 Apr 15:04:28 15:07:12 17° 313° (NW) 15:09:57 145.950 - 145.970 MHz USB
Saudisat 1A 19 Apr 15:07:57 15:12:27 76° 336° (NNW) 15:16:55 436.775 MHz
JAS-1B 19 Apr 15:10:26 15:17:09 43° 54° (NE) 15:22:57 435.800 - 435.900 CW/SSB
ITAMSAT 1 19 Apr 15:14:38 15:19:46 59° 257° (WSW) 15:24:55 435.822 SSB
RS-15 19 Apr 15:17:58 15:28:58 87° 213° (SSW) 15:40:03 29.354 - 29.394 USB, Beacon 29.352 USB
Oscar 19 19 Apr 15:19:48 15:24:35 37° 265° (W) 15:29:25 437.125 CW, 437.150 USB
AO-Echo 19 Apr 15:20:12 15:25:22 64° 256° (WSW) 15:30:23 ?
KITSAT 1 19 Apr 15:26:10 15:28:48 12° 266° (W) 15:31:26 435.175 FM
Oscar 16 19 Apr 15:28:27 15:33:02 31° 267° (W) 15:37:39 437.025 USB, Beacon 2401.1428
HO-68 19 Apr 15:35:03 15:40:05 21° 340° (NNW) 15:45:08 435.675 MHz FM
Uosat F 19 Apr 15:39:03 15:43:45 42° 57° (ENE) 15:48:29 435.120 FM
TMSAT-1 19 Apr 15:44:47 15:50:05 80° 69° (ENE) 15:55:25 436.925 FM
Uribyol 2 19 Apr 16:04:10 16:08:38 29° 268° (W) 16:13:08 436.500 FM
SO-50 19 Apr 16:12:56 16:13:31 10° 111° (ESE) 16:14:06 436.795 FM
OPAL 19 Apr 16:20:32 16:25:14 32° 97° (E) 16:29:54 ?
Gurwin Techsat 1B 19 Apr 16:37:09 16:42:10 41° 263° (W) 16:47:13 435.225 FM
JAS-2 19 Apr 16:39:18 16:41:33 13° 28° (NNE) 16:43:46 435.800 - 435.900 CW/SSB, 435.910 FM
Hamsat 19 Apr 16:44:13 16:46:23 14° 42° (NE) 16:48:33 145.90 MHz
AO-27 19 Apr 16:46:13 16:49:34 17° 277° (W) 16:52:56 436.795 MHz FM
AO-7 19 Apr 16:46:37 16:54:56 90° 245° (WSW) 17:03:18 29.400 - 29.500 MHz
Saudisat 1A 19 Apr 16:48:04 16:52:28 53° 360° (N) 16:56:51 436.775 MHz
ITAMSAT 1 19 Apr 16:57:32 17:00:24 15° 279° (W) 17:03:18 435.822 SSB
JAS-1B 19 Apr 17:00:19 17:07:46 66° 255° (WSW) 17:14:03 435.800 - 435.900 CW/SSB
AO-Echo 19 Apr 17:01:59 17:05:07 16° 278° (W) 17:08:14 ?
Uosat F 19 Apr 17:17:39 17:22:33 51° 259° (W) 17:27:29 435.120 FM
HO-68 19 Apr 17:21:03 17:25:35 18° 7° (N) 17:30:08 435.675 MHz FM
TMSAT-1 19 Apr 17:26:11 17:30:38 27° 270° (W) 17:35:06 436.925 FM
RS-15 19 Apr 17:30:23 17:40:25 45° 241° (WSW) 17:50:37 29.354 - 29.394 USB, Beacon 29.352 USB
SO-50 19 Apr 17:48:47 17:52:58 39° 132° (SE) 17:57:12 436.795 FM
OPAL 19 Apr 17:59:20 18:04:32 68° 298° (WNW) 18:09:43 ?
SO-67 19 Apr 18:00:43 18:01:45 11° 46° (NE) 18:02:48 435.3500 MHz FM
ISS 19 Apr 18:07:28 18:08:50 12° 158° (SSE) 18:10:12 145.800 FM
Hamsat 19 Apr 18:17:26 18:21:30 47° 64° (ENE) 18:25:38 145.90 MHz
JAS-2 19 Apr 18:20:34 18:25:21 33° 53° (NE) 18:29:57 435.800 - 435.900 CW/SSB, 435.910 FM
Gurwin Techsat 1B 19 Apr 18:23:14 18:23:41 10° 286° (WNW) 18:24:08 435.225 FM
Saudisat 1A 19 Apr 18:28:02 18:32:31 75° 23° (NNE) 18:36:57 436.775 MHz
UOSAT-12 19 Apr 18:32:37 18:34:58 14° 114° (ESE) 18:37:21 437.025 FM, 437.400 FM
AO-7 19 Apr 18:41:28 18:48:48 34° 269° (W) 18:56:12 29.400 - 29.500 MHz
JAS-1B 19 Apr 18:54:35 18:59:36 20° 277° (W) 19:04:09 435.800 - 435.900 CW/SSB
STRAND 1 19 Apr 19:00:20 19:02:14 12° 78° (ENE) 19:04:07 ?
Uosat F 19 Apr 19:00:28 19:02:34 12° 281° (W) 19:04:41 435.120 FM
HO-68 19 Apr 19:05:32 19:11:18 28° 32° (NNE) 19:17:05 435.675 MHz FM
SO-50 19 Apr 19:28:49 19:33:21 79° 335° (NNW) 19:37:58 436.795 FM
SO-67 19 Apr 19:30:47 19:34:11 48° 67° (ENE) 19:37:35 435.3500 MHz FM
OPAL 19 Apr 19:38:42 19:42:45 23° 320° (NW) 19:46:48 ?
ISS 19 Apr 19:42:22 19:44:40 17° 178° (S) 19:46:58 145.800 FM
RS-15 19 Apr 19:44:17 19:49:36 15° 269° (W) 19:54:59 29.354 - 29.394 USB, Beacon 29.352 USB
Hamsat 19 Apr 19:53:47 19:57:40 35° 265° (W) 20:01:38 145.90 MHz
Oscar 11 19 Apr 19:57:26 19:58:57 12° 37° (NE) 20:00:28 145.825 FM, Beacon 2401.500 USB
JAS-2 19 Apr 20:04:46 20:10:17 70° 255° (WSW) 20:15:30 435.800 - 435.900 CW/SSB, 435.910 FM
Saudisat 1A 19 Apr 20:07:47 20:12:00 42° 226° (SW) 20:16:10 436.775 MHz
UOSAT-12 19 Apr 20:09:43 20:14:10 48° 136° (SE) 20:18:42 437.025 FM, 437.400 FM
STRAND 1 19 Apr 20:37:46 20:42:44 49° 100° (E) 20:47:40 ?
HO-68 19 Apr 20:50:57 20:57:57 61° 57° (ENE) 21:04:59 435.675 MHz FM
SO-67 19 Apr 21:04:36 21:07:33 25° 267° (W) 21:10:32 435.3500 MHz FM
SO-50 19 Apr 21:09:51 21:14:20 54° 359° (N) 21:18:53 436.795 FM
OPAL 19 Apr 21:18:17 21:20:07 12° 343° (NNW) 21:21:57 ?
ISS 19 Apr 21:18:50 21:20:32 13° 198° (SSW) 21:22:15 145.800 FM
FUNcube-1 19 Apr 21:23:02 21:25:47 17° 47° (NE) 21:28:31 145.950 - 145.970 MHz USB
Oscar 11 19 Apr 21:30:09 21:34:07 36° 59° (ENE) 21:38:07 145.825 FM, Beacon 2401.500 USB
Saudisat 1A 19 Apr 21:49:07 21:50:36 12° 247° (WSW) 21:52:05 436.775 MHz
UOSAT-12 19 Apr 21:49:36 21:54:17 72° 339° (NNW) 21:59:01 437.025 FM, 437.400 FM
JAS-2 19 Apr 21:52:57 21:56:27 17° 277° (W) 21:59:51 435.800 - 435.900 CW/SSB, 435.910 FM
STRAND 1 19 Apr 22:17:08 22:21:59 44° 302° (WNW) 22:26:48 ?
